Cortez, CO

1:30 AM MDT on July 27, 2017 (GMT -0600)
Cortez Municipal

Weather History for KCEZ - February, 2014

Change the Weather History Date:

Tuesday, February 11, 2014

  Actual Average Record
Temperature  
Mean Temperature 35 °F 31 °F  
Max Temperature 49 °F 45 °F 61 °F (2017)
Min Temperature 21 °F 18 °F 1 °F (2009)
Degree Days  
Heating Degree Days 30 34  
Month to date heating degree days 398 382  
Since 1 July heating degree days 4154 4187  
Cooling Degree Days 0 0  
Month to date cooling degree days 0 0  
Year to date cooling degree days 0 0  
Moisture  
Dew Point 23 °F    
Average Humidity 66    
Maximum Humidity 100    
Minimum Humidity 31    
Precipitation  
Precipitation 0.00 in 0.03 in 0.46 in (2007)
Month to date precipitation 0.30 0.30  
Year to date precipitation 0.55 1.31  
Sea Level Pressure  
Sea Level Pressure 30.11 in    
Wind  
Wind Speed 4 mph (ENE)    
Max Wind Speed 15 mph    
Max Gust Speed 18 mph    
Visibility 10 miles    
Events      
T = Trace of Precipitation, MM = Missing Value Source: NWS Daily Summary

Daily Weather History Graph

Daily Weather History Graph

Search for Another Location

Airport or City:

Trip Planner

Search our weather history database for the weather conditions in past years. The results will help you decide how hot, cold, wet, or windy it might be!

Date:

Astronomy

Feb. 11, 2014 Rise Set
Actual Time 7:07 AM MST 5:50 PM MST
Civil Twilight 6:41 AM MST 6:16 PM MST
Nautical Twilight 6:10 AM MST 6:47 PM MST
Astronomical Twilight 5:40 AM MST 7:18 PM MST
Moon 3:14 PM MST (2/11) 4:45 AM MST (2/11)
Length of Visible Light 11h 35m
Length of Day
10h 42m
Waxing Gibbous, 91% of the Moon is Illuminated
Feb 11
Waxing Gibbous
Feb 14
Full
Feb 22
Last Quarter
Mar 1
New
Mar 8
First Quarter

Hourly Weather History & Observations

Time (MST) Temp. Windchill Dew Point Humidity Pressure Visibility Wind Dir Wind Speed Gust Speed Precip Events Conditions
12:53 AM 27.0 °F 23.0 °F 26.1 °F 96% 30.04 in 10.0 mi East 3.5 mph - N/A   Clear
1:53 AM 28.0 °F 24.2 °F 24.1 °F 85% 30.05 in 10.0 mi NE 3.5 mph - N/A   Clear
2:53 AM 25.0 °F 19.3 °F 23.0 °F 92% 30.05 in 10.0 mi East 4.6 mph - N/A   Clear
3:53 AM 28.0 °F - 23.0 °F 81% 30.03 in 10.0 mi Calm Calm - N/A   Clear
4:53 AM 24.1 °F 18.2 °F 21.0 °F 88% 30.06 in 10.0 mi NE 4.6 mph - N/A   Clear
5:53 AM 25.0 °F - 21.0 °F 85% 30.10 in 10.0 mi Calm Calm - N/A   Clear
6:53 AM 21.0 °F 14.6 °F 19.0 °F 92% 30.15 in 10.0 mi NE 4.6 mph - N/A   Clear
7:53 AM 24.1 °F 19.7 °F 21.0 °F 88% 30.15 in 10.0 mi East 3.5 mph - N/A   Clear
8:53 AM 30.0 °F 25.2 °F 24.1 °F 79% 30.14 in 10.0 mi ENE 4.6 mph - N/A   Clear
9:53 AM 33.1 °F - 24.1 °F 70% 30.13 in 10.0 mi Calm Calm - N/A   Clear
10:53 AM 37.0 °F 34.5 °F 21.0 °F 52% 30.13 in 10.0 mi Variable 3.5 mph - N/A   Clear
11:53 AM 42.1 °F - 21.9 °F 45% 30.12 in 10.0 mi Calm Calm - N/A   Clear
12:53 PM 45.0 °F - 21.0 °F 39% 30.09 in - North - - N/A   Clear
1:53 PM 48.0 °F - 21.9 °F 36% 30.04 in 10.0 mi West 6.9 mph - N/A   Clear
2:53 PM 48.9 °F - 21.9 °F 35% 30.01 in 10.0 mi WSW 9.2 mph - N/A   Clear
3:53 PM 48.0 °F - 19.9 °F 33% 30.02 in 10.0 mi WNW 10.4 mph - N/A   Clear
4:53 PM 45.0 °F 38.9 °F 19.9 °F 37% 30.08 in 10.0 mi West 12.7 mph - N/A   Clear
5:53 PM 39.0 °F 34.0 °F 23.0 °F 53% 30.13 in 10.0 mi SSW 6.9 mph - N/A   Clear
6:53 PM 36.0 °F 31.1 °F 23.0 °F 59% 30.16 in 10.0 mi NNW 5.8 mph - N/A   Clear
7:53 PM 35.1 °F - 26.1 °F 70% 30.17 in 10.0 mi Calm Calm - N/A   Clear
8:53 PM 30.0 °F 26.5 °F 27.0 °F 88% 30.17 in 10.0 mi ESE 3.5 mph - N/A   Clear
9:53 PM 32.0 °F 27.5 °F 26.1 °F 79% 30.17 in 10.0 mi ENE 4.6 mph - N/A   Clear
10:53 PM 30.0 °F - 24.1 °F 79% 30.19 in 10.0 mi Calm Calm - N/A   Clear
11:53 PM 26.1 °F 21.9 °F 24.1 °F 92% 30.19 in 10.0 mi East 3.5 mph - N/A   Clear